Погода в Хмельнике

Украина / Винницкая область     49°33′30″N   27°57′16″E
темп.,
°C
ветер,
м/с
пор.,
м/с
влажн.,
%
обл.,
%
осадки,
мм/ч
давл.,
гПа
погр.,
м
9 мая, вс
вс900:00+2зсз39935 0.0 1021198
03:00+1зсз37945 0.0 1022138
06:00+1зсз37955 0.0 1024146
09:00+7сз47721 0.0 1025709
12:00+11сз46495 0.0 10241495
15:00+13сз45425 0.0 10242171
18:00+13сз24435 0.0 10241938
21:00+8в22585 0.0 102612
10 мая, пн
пн1000:00+6ююв34652 0.0 102748
03:00+5ююв35705 0.0 102775
06:00+4ююв35715 0.0 102774
09:00+11ююв46595 0.0 1027360
12:00+15ююв555060 0.0 10261314
15:00+17ююв554728 0.0 10251558
18:00+16юв44520 0.0 10241375
21:00+10юв45730 0.0 102457
11 мая, вт
вт1100:00+8вюв47790 0.0 102592
03:00+6вюв35810 0.0 102483
06:00+5вюв34840 0.0 102464
09:00+11в46580 0.0 1023508
12:00+15всв45462 0.0 1021958
15:00+17всв45555 0.0 10201117
18:00+17всв466358 0.0 10181079
21:00+12всв33885 0.0 101742
12 мая, ср
ср1200:00+11в310975 0.0 1017317
03:00+8в489826 0.0 1016225
06:00+6в38930 0.0 1016165
09:00+8в6878100 0.0 1015902
12:00+10в5761100 0.0 10151408
15:00+11в4660100 0.0 10131438
18:00+11в3466100 0.0 1012734
21:00+9ююв3472100 0.0 1011106
13 мая, чт
чт1300:00+8ююв367554 0.0 1011146
03:00+5юв3789100 0.0 1011128
06:00+7вюв61296100 1.4 1009452
09:00+9юв61391100 2.8 1009636
12:00+12ююв71184100 0.2 10091080
15:00+10ююв71485100 0.3 1009717
18:00+11ююв51086100 0.0 1009710
21:00+10юв3595100 0.0 1009115